Date,TemperatureHighF,TemperatureAvgF,TemperatureLowF,DewpointHighF,DewpointAvgF,DewpointLowF,HumidityHigh,HumidityAvg,HumidityLow,PressureMaxIn,PressureMinIn,WindSpeedMaxMPH,WindSpeedAvgMPH,GustSpeedMaxMPH,PrecipitationSumIn
2013-1-1,44,35,28,27,20,14,86,57,32,30.29,30.15,10,2,11,0.00
2013-1-2,46,37,26,21,15,10,64,41,25,30.28,30.12,27,5,31,0.00
2013-1-3,38,31,27,26,23,18,87,71,48,30.37,30.15,32,21,47,0.00
2013-1-4,32,28,26,27,24,21,88,81,78,30.47,30.36,22,7,30,0.00
2013-1-5,31,28,25,27,24,21,91,87,75,30.52,30.42,6,1,9,0.00
2013-1-6,44,37,23,28,24,19,90,62,42,30.53,30.12,31,10,42,0.01
2013-1-7,51,46,41,33,28,24,59,51,44,30.12,29.75,35,18,47,0.00
2013-1-8,54,48,40,31,25,15,63,43,24,30.00,29.77,19,4,31,0.00
2013-1-9,55,48,36,29,23,14,49,37,26,30.20,30.02,25,6,31,0.00
2013-1-10,58,48,37,30,24,16,59,41,33,30.05,29.83,6,2,11,0.00
2013-1-11,53,45,35,27,20,7,56,36,29,29.83,29.72,19,6,22,0.00
2013-1-12,39,33,27,10,6,3,41,33,24,30.12,29.82,19,5,23,0.00
2013-1-13,39,32,20,10,4,-1,52,32,22,30.22,30.05,16,4,22,0.00
2013-1-14,41,33,27,19,11,-2,70,43,23,30.11,30.02,32,12,34,0.00
2013-1-15,35,28,21,12,2,-8,58,34,16,30.46,30.12,14,4,19,0.00
2013-1-16,45,34,24,6,2,-5,36,26,19,30.55,30.43,11,2,14,0.00
2013-1-17,54,44,29,22,14,3,38,30,24,30.56,30.35,25,7,34,0.00
2013-1-18,58,49,43,22,19,15,40,31,19,30.34,30.16,27,8,35,0.00
2013-1-19,60,50,39,20,17,13,43,28,19,30.29,30.16,6,2,10,0.00
2013-1-20,62,52,42,18,13,6,33,23,12,30.22,30.04,4,1,7,0.00
2013-1-21,64,52,39,14,11,8,32,20,12,30.18,30.05,14,2,14,0.00
2013-1-22,64,53,42,16,12,10,29,20,13,30.21,30.10,5,1,9,0.00
2013-1-23,68,58,48,23,17,13,26,20,15,30.27,30.12,4,1,7,0.00
2013-1-24,70,60,50,32,24,18,37,26,19,30.18,30.04,7,1,11,0.00
2013-1-25,64,58,51,42,38,33,59,49,38,30.13,29.98,15,2,18,0.00
2013-1-26,65,58,51,48,44,39,75,59,47,29.99,29.82,14,3,20,0.05
2013-1-27,62,55,50,45,42,38,81,64,46,29.94,29.84,10,2,18,0.00
2013-1-28,63,54,45,39,36,30,73,52,33,29.88,29.72,16,4,21,0.00
2013-1-29,43,37,33,33,21,12,82,55,32,30.08,29.74,25,9,34,0.00
2013-1-30,47,38,28,22,14,5,75,42,18,30.33,30.09,12,4,16,0.00
2013-1-31,55,46,37,20,17,14,41,32,23,30.31,30.18,7,2,9,0.00
2013-2-1,60,50,37,21,17,14,44,27,18,30.23,30.10,7,1,10,0.00
2013-2-2,64,53,42,19,15,8,36,23,13,30.30,30.17,20,4,26,0.00
2013-2-3,61,55,50,32,18,13,47,25,16,30.17,29.86,25,10,29,0.00
2013-2-4,62,54,47,33,31,27,50,42,34,29.98,29.86,7,2,13,0.00
2013-2-5,64,55,43,35,31,26,66,42,24,29.97,29.84,7,2,10,0.00
2013-2-6,64,56,48,32,29,23,49,36,23,29.90,29.77,13,3,16,0.00
2013-2-7,63,54,46,33,27,19,54,37,20,30.03,29.88,19,4,28,0.00
2013-2-8,68,56,46,27,21,4,45,28,12,30.00,29.73,42,16,48,0.00
2013-2-9,58,50,36,23,16,8,46,27,16,29.88,29.61,22,7,31,0.00
2013-2-10,51,41,33,19,14,7,54,35,18,30.01,29.89,12,4,18,0.00
2013-2-11,57,47,38,28,13,9,65,26,18,29.98,29.81,10,3,15,0.00
2013-2-12,47,39,30,31,17,3,84,49,16,30.18,29.92,13,4,19,0.00
2013-2-13,52,42,31,13,11,8,48,29,18,30.22,30.06,9,2,15,0.00
2013-2-14,58,47,32,17,12,8,38,25,18,30.14,29.98,11,2,18,0.00
2013-2-15,56,47,38,27,22,12,59,38,19,30.30,30.09,25,8,34,0.00
2013-2-16,60,49,35,23,16,9,55,30,14,30.39,30.10,6,1,10,0.00
2013-2-17,66,54,40,12,7,0,26,16,7,30.09,29.73,11,3,14,0.00
2013-2-18,61,53,43,13,6,0,26,16,9,29.99,29.79,15,5,21,0.00
2013-2-19,56,52,46,45,22,1,92,42,11,29.94,29.71,25,10,29,0.23
2013-2-20,58,48,34,39,27,18,83,48,23,29.72,29.48,19,8,29,0.00
2013-2-21,48,37,28,25,22,20,77,56,34,29.98,29.73,13,5,22,0.00
2013-2-22,52,42,31,25,22,18,69,47,27,30.09,29.96,12,4,19,0.00
2013-2-23,57,46,35,21,17,10,54,33,23,30.09,29.76,11,3,16,0.00
2013-2-24,58,45,30,24,17,5,57,34,16,29.88,29.54,25,7,41,0.00
2013-2-25,50,38,24,15,11,7,56,36,18,30.14,29.89,15,3,19,0.00
2013-2-26,62,47,33,13,5,-7,37,20,6,30.03,29.80,14,4,27,0.00
2013-2-27,51,44,36,12,1,-5,29,17,11,30.22,30.00,22,6,26,0.00
2013-2-28,55,46,39,15,9,1,33,23,14,30.30,30.16,23,7,27,0.00
2013-3-1,62,51,40,12,6,0,23,16,12,30.34,30.20,9,3,12,0.00
2013-3-2,68,57,44,16,12,8,23,17,12,30.32,30.08,6,2,10,0.00
2013-3-3,78,64,52,14,7,-18,19,12,2,30.08,29.75,16,4,25,0.00
2013-3-4,75,63,53,31,15,-2,25,16,6,29.91,29.59,23,6,37,0.00
2013-3-5,61,52,41,26,23,18,52,34,24,30.14,29.91,36,21,46,0.00
2013-3-6,74,61,49,25,23,22,34,24,15,30.11,29.83,33,14,44,0.00
2013-3-7,74,66,60,25,21,11,25,18,9,29.86,29.71,12,3,22,0.00
2013-3-8,66,59,54,48,35,19,73,41,19,29.80,29.64,15,4,27,0.00
2013-3-9,55,46,39,36,27,20,73,52,26,29.95,29.69,18,8,29,0.00
2013-3-10,55,44,34,28,24,20,77,47,27,30.16,29.95,17,4,23,0.00
2013-3-11,64,53,40,24,19,13,43,28,16,30.17,29.96,11,2,15,0.00
2013-3-12,70,58,44,23,16,12,32,20,11,30.10,29.98,25,6,37,0.00
2013-3-13,74,62,52,23,18,6,31,20,7,30.20,30.04,34,14,40,0.00
2013-3-14,78,69,60,17,9,1,17,10,5,30.12,29.95,17,5,26,0.00
2013-3-15,82,71,62,18,5,-7,15,8,3,29.96,29.73,8,2,12,0.00
2013-3-16,81,70,57,21,10,-2,18,11,4,29.73,29.54,14,3,21,0.00
2013-3-17,75,66,56,21,14,8,21,13,9,29.73,29.56,20,6,29,0.00
2013-3-18,74,63,51,23,15,9,24,16,9,29.88,29.72,13,4,21,0.00
2013-3-19,73,64,53,21,16,11,21,16,11,29.92,29.77,22,5,28,0.00
2013-3-20,69,60,50,33,27,19,48,30,19,30.02,29.77,30,13,38,0.00
2013-3-21,76,66,57,29,23,15,29,20,10,29.76,29.52,15,5,28,0.00
2013-3-22,75,65,54,29,23,17,30,21,15,29.64,29.48,19,5,25,0.00
2013-3-23,69,60,52,27,15,-1,36,20,7,29.82,29.61,22,6,31,0.00
2013-3-24,62,50,36,3,-4,-19,19,11,6,30.00,29.81,24,8,34,0.00
2013-3-25,57,50,38,9,5,-3,24,16,10,30.09,29.88,32,15,41,0.00
2013-3-26,68,54,42,16,13,10,29,20,12,30.16,29.93,37,18,48,0.00
2013-3-27,75,65,54,25,19,15,24,17,12,29.95,29.79,16,4,20,0.00
2013-3-28,77,69,59,28,21,14,20,16,13,29.94,29.80,10,2,17,0.00
2013-3-29,79,69,60,26,18,12,24,15,9,29.93,29.80,11,3,13,0.00
2013-3-30,79,69,56,27,17,12,20,14,9,29.92,29.75,10,3,15,0.00
2013-3-31,78,69,60,32,23,15,30,18,12,29.86,29.73,13,2,15,0.00
2013-4-1,81,71,57,30,18,3,26,14,5,29.84,29.65,15,3,18,0.00
2013-4-2,78,67,59,26,17,6,25,15,6,29.73,29.56,18,4,26,0.00
2013-4-3,70,60,46,36,28,7,60,34,12,29.94,29.71,20,6,24,0.00
2013-4-4,78,67,51,32,19,3,39,19,7,30.04,29.88,21,4,21,0.00
2013-4-5,83,72,62,23,13,2,21,12,5,29.90,29.63,28,10,30,0.00
2013-4-6,79,68,59,31,23,17,28,19,10,29.79,29.63,16,3,18,0.00
2013-4-7,80,69,57,29,21,17,25,17,10,29.74,29.54,19,4,22,0.00
2013-4-8,82,69,58,27,20,10,30,17,7,29.58,29.29,20,6,27,0.00
2013-4-9,68,56,47,35,25,15,59,32,15,29.76,29.28,20,7,32,0.00
2013-4-10,61,52,42,29,24,17,58,36,18,29.89,29.74,15,4,25,0.00
2013-4-11,71,56,41,22,17,7,42,24,11,29.89,29.70,9,3,14,0.00
2013-4-12,76,66,55,24,15,10,23,14,9,29.76,29.58,14,3,24,0.00
2013-4-13,78,70,62,27,19,13,22,15,9,29.64,29.48,16,3,19,0.00
2013-4-14,78,68,56,27,22,17,27,18,11,29.64,29.49,16,5,31,0.00
2013-4-15,81,68,56,29,20,13,34,18,8,29.67,29.54,18,6,23,0.00
2013-4-16,82,70,60,28,17,0,27,15,4,29.69,29.54,19,5,26,0.00
2013-4-17,76,65,52,28,19,7,28,18,7,29.74,29.47,26,7,35,0.00
2013-4-18,62,52,42,21,12,-7,40,22,6,30.07,29.74,23,6,27,0.00
2013-4-19,65,54,45,4,-5,-26,16,9,2,30.20,29.94,24,7,31,0.00
2013-4-20,76,65,51,10,-2,-21,11,7,2,29.94,29.69,14,4,29,0.00
2013-4-21,80,68,54,15,9,4,15,10,6,29.95,29.77,11,2,17,0.00
2013-4-22,84,73,59,18,7,-5,15,8,3,29.84,29.58,11,3,19,0.00
2013-4-23,83,71,57,24,10,3,28,10,5,29.75,29.55,32,6,40,0.00
2013-4-24,72,57,43,29,25,22,48,32,16,29.98,29.76,36,19,45,0.00
2013-4-25,82,68,56,39,28,5,39,26,6,29.94,29.70,41,17,46,0.00
2013-4-26,80,68,58,23,13,-3,23,13,4,29.96,29.81,12,4,17,0.00
2013-4-27,82,72,63,25,14,-2,23,12,4,29.94,29.75,25,9,28,0.00
2013-4-28,83,74,61,37,25,12,33,17,7,29.79,29.60,20,6,25,0.00
2013-4-29,87,76,63,31,13,-13,28,12,2,29.66,29.48,10,2,18,0.00
2013-4-30,88,77,63,20,11,-3,14,8,3,29.60,29.48,19,3,22,0.00
2013-5-1,85,75,65,23,13,-1,17,10,4,29.75,29.54,13,4,23,0.00
2013-5-2,72,54,46,34,23,7,49,32,8,30.28,29.75,38,19,48,0.00
2013-5-3,67,53,40,20,14,5,45,24,10,30.34,29.93,41,13,43,0.00
2013-5-4,81,68,55,20,14,4,20,13,9,29.93,29.66,25,8,30,0.00
2013-5-5,81,70,62,27,20,12,17,15,12,29.86,29.67,35,14,40,0.00
2013-5-6,79,70,63,38,29,20,38,22,14,29.80,29.68,27,6,31,0.00
2013-5-7,78,69,58,33,26,20,27,21,11,29.86,29.68,17,4,22,0.00
2013-5-8,78,68,57,32,25,18,32,21,11,29.85,29.70,16,4,22,0.00
2013-5-9,78,68,58,30,24,17,29,19,13,29.83,29.70,11,3,22,0.00
2013-5-10,75,64,55,46,34,25,72,34,20,29.98,29.77,34,10,44,0.00
2013-5-11,72,63,56,44,39,26,56,43,19,30.11,29.98,25,7,30,0.00
2013-5-12,76,67,59,38,34,27,44,31,19,30.12,29.93,15,4,19,0.00
2013-5-13,80,70,60,36,29,17,39,24,10,30.07,29.88,20,8,28,0.00
2013-5-14,82,72,62,41,35,17,40,27,9,29.92,29.70,10,2,13,0.00
2013-5-15,88,76,63,37,31,25,32,20,11,29.80,29.60,13,4,22,0.00
2013-5-16,88,79,68,33,25,16,23,15,7,29.74,29.56,13,4,21,0.00
2013-5-17,90,80,71,28,22,13,16,12,7,29.70,29.57,12,3,19,0.00
2013-5-18,85,76,66,32,20,5,20,13,5,29.72,29.56,22,5,24,0.00
2013-5-19,85,74,62,33,21,9,23,15,6,29.72,29.53,16,4,23,0.00
2013-5-20,86,75,62,32,24,11,27,16,6,29.71,29.51,13,4,26,0.00
2013-5-21,84,73,58,32,20,8,27,15,7,29.77,29.62,11,3,22,0.00
2013-5-22,90,80,68,21,12,-1,14,8,3,29.69,29.53,12,2,20,0.00
2013-5-23,94,82,72,48,24,13,43,14,7,29.64,29.50,32,6,48,0.00
2013-5-24,92,80,67,49,40,25,51,26,11,29.75,29.60,18,7,27,0.00
2013-5-25,92,82,71,54,36,10,54,26,6,29.73,29.59,28,9,31,0.00
2013-5-26,91,81,68,30,20,2,23,11,5,29.76,29.59,14,3,18,0.00
2013-5-27,90,80,70,24,12,0,11,8,4,29.68,29.50,11,3,14,0.00
2013-5-28,90,80,69,21,10,-3,13,7,3,29.54,29.36,18,5,22,0.00
2013-5-29,85,75,65,34,25,3,24,16,6,29.54,29.41,16,4,28,0.00
2013-5-30,89,78,67,42,33,26,27,20,11,29.67,29.52,14,3,22,0.00
2013-5-31,92,81,68,39,32,22,28,18,11,29.68,29.51,11,4,20,0.00
2013-6-1,95,85,76,39,21,1,24,10,4,29.66,29.56,28,8,31,0.00
2013-6-2,93,78,70,57,48,40,55,37,24,29.70,29.49,40,19,50,0.00
2013-6-3,95,80,66,54,39,7,65,33,5,29.71,29.55,41,10,60,0.00
2013-6-4,95,84,71,35,28,17,22,13,7,29.68,29.52,11,3,21,0.00
2013-6-5,94,85,74,36,27,13,21,13,6,29.65,29.50,12,3,16,0.00
2013-6-6,91,80,70,46,38,8,41,24,6,29.66,29.54,26,11,39,0.00
2013-6-7,92,78,68,58,50,35,67,40,18,29.69,29.51,28,14,39,0.00
2013-6-8,98,83,70,50,40,20,46,25,7,29.63,29.44,31,7,38,0.00
2013-6-9,96,86,73,50,39,21,28,19,9,29.62,29.49,18,5,28,0.00
2013-6-10,100,88,78,49,44,33,35,22,11,29.67,29.52,22,10,36,0.00
2013-6-11,101,90,80,46,37,26,27,17,8,29.64,29.49,25,8,32,0.00
2013-6-12,102,90,79,49,39,24,31,18,8,29.63,29.49,22,7,29,0.00
2013-6-13,94,83,75,58,53,41,52,37,16,29.66,29.53,27,11,33,0.00
2013-6-14,94,80,68,56,53,42,66,42,22,29.69,29.52,26,9,30,0.00
2013-6-15,96,84,71,58,49,37,63,34,13,29.73,29.58,22,4,24,0.01
2013-6-16,97,86,76,53,47,43,41,26,16,29.72,29.57,12,3,16,0.01
2013-6-17,97,86,77,61,50,41,55,30,15,29.68,29.52,27,6,46,0.13
2013-6-18,96,82,71,57,52,42,57,39,16,29.71,29.56,31,14,39,0.00
2013-6-19,99,89,79,58,45,30,44,26,9,29.60,29.43,19,8,28,0.00
2013-6-20,91,86,82,48,45,39,29,25,16,29.60,29.50,21,8,27,0.00
2013-6-21,95,88,78,51,44,31,39,23,13,29.68,29.52,13,5,16,0.00
2013-6-22,87,83,78,45,32,11,25,17,7,29.67,29.60,5,2,9,0.00
2013-6-23,93,81,78,48,46,31,35,31,11,29.59,29.58,8,5,14,0.00
2013-6-24,85,80,79,36,34,33,20,19,17,29.58,29.54,4,1,5,0.00
2013-6-25,94,94,94,36,35,34,13,12,12,29.64,29.64,5,4,15,0.00
2013-6-27,103,91,80,37,13,4,14,6,3,29.68,29.58,19,4,31,0.00
2013-7-5,94,94,94,51,50,49,23,22,21,29.52,29.51,6,6,10,0.00
2013-7-8,84,83,83,54,54,54,37,36,36,29.71,29.70,21,16,23,0.00
2013-7-9,89,81,77,57,55,50,49,41,27,29.75,29.65,26,12,30,0.00
2013-7-10,93,82,74,59,55,50,57,42,24,29.77,29.60,17,9,21,0.00
2013-7-11,96,87,76,59,54,50,56,34,22,29.69,29.58,13,6,21,0.00
2013-7-12,97,83,73,61,55,48,60,40,20,29.69,29.54,17,4,21,0.00
2013-7-13,94,82,70,59,53,43,63,39,20,29.72,29.57,12,3,20,0.00
2013-7-14,97,86,73,58,52,45,58,33,19,29.68,29.49,21,5,26,0.00
2013-7-15,81,74,64,58,55,50,77,53,37,29.82,29.55,27,16,36,0.00
2013-7-16,83,73,62,58,51,45,86,48,26,29.91,29.81,20,7,28,0.00
2013-7-17,76,70,66,60,55,52,81,60,50,29.98,29.88,27,12,40,0.01
2013-7-18,72,66,62,64,62,60,94,88,75,29.98,29.88,19,7,26,0.88
2013-7-19,81,72,67,64,62,59,85,72,50,29.92,29.73,21,7,26,0.00
2013-7-20,84,76,69,64,61,56,79,62,41,29.79,29.61,19,7,23,0.00
2013-7-21,93,79,70,61,58,50,70,51,25,29.73,29.57,10,3,15,0.00
2013-7-22,91,77,68,67,61,54,90,61,29,29.75,29.61,11,2,19,0.09
2013-7-23,75,70,67,61,60,58,76,71,61,29.77,29.73,3,0,6,0.00
2013-7-25,89,77,66,64,62,59,91,60,42,29.88,29.78,36,6,40,0.08
2013-7-26,93,78,70,67,64,57,88,63,36,29.88,29.75,17,3,28,0.10
2013-7-27,80,74,67,66,62,58,87,68,56,29.89,29.74,25,9,34,0.00
2013-7-28,87,76,66,65,62,57,86,63,43,29.80,29.64,9,1,22,0.05
2013-7-29,92,81,71,64,58,51,67,48,25,29.78,29.70,10,2,13,0.00
2013-7-30,96,83,73,60,56,47,60,42,22,29.85,29.75,16,3,28,0.00
2013-7-31,96,86,75,60,54,44,52,36,18,29.86,29.71,11,3,19,0.00
2013-8-1,93,85,74,62,54,48,64,37,22,29.83,29.66,15,4,21,0.00
2013-8-2,94,83,72,62,58,54,68,45,27,29.73,29.61,9,2,18,0.15
2013-8-3,94,84,73,61,57,52,64,42,25,29.76,29.64,8,2,11,0.00
2013-8-4,97,87,77,60,54,49,50,34,21,29.76,29.59,7,2,14,0.00
2013-8-5,96,83,72,60,55,46,66,40,20,29.74,29.60,11,4,19,0.01
2013-8-6,90,79,69,60,56,49,66,47,26,29.78,29.66,11,3,17,0.00
2013-8-7,87,78,68,59,55,51,68,48,30,29.79,29.66,12,4,17,0.00
2013-8-8,91,81,69,56,50,40,56,36,20,29.76,29.63,11,2,14,0.00
2013-8-9,96,85,76,52,44,40,33,24,16,29.74,29.64,15,5,22,0.00
2013-8-10,84,78,67,63,56,47,86,48,29,29.89,29.74,22,9,27,0.00
2013-8-11,90,78,66,61,57,50,84,51,28,29.91,29.74,15,6,24,0.00
2013-8-12,92,83,75,60,56,52,53,41,26,29.81,29.66,21,7,23,0.00
2013-8-13,92,83,73,64,58,50,69,44,30,29.80,29.66,21,6,21,0.01
2013-8-14,94,83,68,63,57,53,82,43,27,29.84,29.64,21,8,30,0.28
2013-8-15,89,78,66,63,58,49,88,52,31,29.85,29.74,13,2,21,0.09
2013-8-16,93,83,72,61,56,46,63,41,20,29.84,29.71,15,2,21,0.00
2013-8-17,96,86,75,57,49,43,45,29,17,29.81,29.64,13,3,21,0.00
2013-8-18,96,86,76,54,49,45,40,28,18,29.78,29.64,19,6,29,0.07
2013-8-19,95,83,75,57,52,43,50,35,22,29.77,29.64,15,3,20,0.11
2013-8-20,93,83,73,58,50,45,52,34,20,29.74,29.64,17,4,23,0.00
2013-8-21,92,82,71,58,48,31,59,34,15,29.78,29.65,15,4,21,0.00
2013-8-22,90,82,74,54,46,34,47,30,14,29.81,29.65,21,8,24,0.00
2013-8-23,89,79,72,57,53,47,52,41,23,29.77,29.64,24,10,27,0.00
2013-8-24,87,78,71,58,56,53,62,47,33,29.82,29.70,24,10,27,0.00
2013-8-25,92,82,71,59,54,50,65,41,24,29.88,29.73,20,7,25,0.00
2013-8-26,90,81,74,56,53,50,52,39,27,29.85,29.71,17,6,32,0.00
2013-8-27,84,77,71,61,57,53,66,51,37,29.82,29.70,26,7,29,0.22
2013-8-28,77,72,68,67,63,60,91,74,60,29.90,29.75,12,4,17,0.00
2013-8-29,77,70,64,67,64,61,95,81,65,29.99,29.89,16,3,26,0.65
2013-8-30,87,77,69,66,62,59,78,62,40,29.93,29.75,4,1,10,0.00
2013-8-31,93,82,70,64,58,50,73,46,26,29.77,29.60,8,2,11,0.00
2013-9-1,96,85,73,61,52,41,59,35,16,29.69,29.58,10,3,20,0.00
2013-9-2,94,83,67,67,54,45,88,39,25,29.75,29.61,23,8,33,0.23
2013-9-3,89,82,75,59,53,43,54,39,22,29.82,29.67,16,5,25,0.00
2013-9-4,90,81,75,54,51,48,45,35,25,29.86,29.73,18,5,21,0.00
2013-9-5,90,82,76,54,48,39,45,31,18,29.86,29.74,19,7,25,0.00
2013-9-6,90,82,75,55,53,48,49,37,25,29.85,29.67,18,7,25,0.00
2013-9-7,92,82,75,55,52,46,49,37,25,29.78,29.63,21,9,26,0.00
2013-9-8,90,81,74,56,52,45,51,37,24,29.71,29.53,19,7,22,0.00
2013-9-9,88,76,71,61,56,52,65,51,35,29.65,29.54,28,13,30,0.00
2013-9-10,75,68,65,65,63,60,93,82,64,29.81,29.64,20,9,26,0.87
2013-9-11,77,70,66,68,65,63,94,83,65,29.85,29.76,25,6,31,0.60
2013-9-12,71,67,65,65,63,59,93,85,74,29.84,29.77,25,13,33,1.56
2013-9-13,72,69,65,64,61,57,86,76,59,29.81,29.68,25,11,29,0.02
2013-9-14,82,74,69,58,55,53,63,53,38,29.77,29.64,22,10,27,0.00
2013-9-15,85,76,70,59,55,51,56,48,37,29.77,29.66,20,9,24,0.00
2013-9-16,80,74,67,62,58,56,68,60,49,29.86,29.75,27,10,27,0.00
2013-9-17,84,74,67,62,60,57,80,62,43,29.84,29.67,21,8,29,0.00
2013-9-18,84,75,67,62,60,57,77,60,41,29.75,29.58,18,9,26,0.00
2013-9-19,83,74,68,65,62,59,82,66,48,29.70,29.57,21,8,29,0.00
2013-9-20,80,72,65,63,58,53,84,64,41,29.82,29.66,21,6,33,0.00
2013-9-21,78,69,62,59,55,51,81,62,42,29.88,29.72,29,11,36,0.00
2013-9-22,84,74,65,55,51,47,63,47,31,29.72,29.48,17,8,24,0.00
2013-9-23,81,73,63,56,44,34,61,38,21,29.77,29.54,12,3,18,0.00
2013-9-24,84,74,62,46,38,33,45,28,17,29.89,29.74,12,2,15,0.00
2013-9-25,88,79,68,50,42,35,35,28,23,29.74,29.48,14,5,20,0.00
2013-9-26,86,77,68,48,44,40,39,31,23,29.63,29.50,9,2,14,0.00
2013-9-27,83,75,66,56,50,40,61,44,24,29.68,29.50,16,4,17,0.00
2013-9-28,74,67,57,43,32,20,53,30,17,30.00,29.68,9,2,12,0.00
2013-9-29,78,69,53,39,33,16,47,28,14,30.02,29.84,11,2,13,0.00
2013-9-30,84,73,61,43,33,23,39,24,13,29.85,29.67,8,2,16,0.00
2013-10-1,85,75,63,35,26,16,27,17,8,29.78,29.68,8,3,18,0.00
2013-10-2,84,74,58,40,33,25,37,23,17,29.80,29.65,11,2,13,0.00
2013-10-3,83,74,64,42,34,24,36,24,12,29.73,29.59,11,2,17,0.00
2013-10-4,82,71,61,47,39,32,53,33,17,29.77,29.63,17,3,20,0.00
2013-10-5,71,64,56,36,23,12,41,22,13,30.01,29.76,16,5,23,0.00
2013-10-6,73,64,51,29,22,12,33,21,13,30.13,30.01,15,3,20,0.00
2013-10-7,78,69,54,31,24,19,40,19,13,30.07,29.86,20,7,23,0.00
2013-10-8,82,73,65,39,29,19,27,20,14,29.86,29.64,15,4,18,0.00
2013-10-9,82,72,62,41,35,29,33,26,16,29.75,29.61,15,3,18,0.00
2013-10-10,80,71,59,46,38,32,49,32,18,29.70,29.57,24,7,34,0.00
2013-10-11,74,63,52,41,36,33,54,38,26,29.84,29.70,13,3,19,0.00
2013-10-12,79,68,51,40,36,30,56,33,17,29.92,29.80,25,6,32,0.00
2013-10-13,78,72,66,53,47,41,57,42,30,29.86,29.76,27,10,35,0.00
2013-10-14,73,69,65,50,47,46,52,46,41,29.85,29.74,8,2,19,0.00
2013-10-15,71,64,56,54,50,47,70,59,50,29.82,29.72,33,9,45,0.00
2013-10-16,72,61,53,50,37,13,83,49,15,29.94,29.78,32,9,40,0.00
2013-10-17,72,63,50,29,20,12,33,20,15,29.96,29.78,7,2,12,0.00
2013-10-18,73,64,52,30,21,15,36,20,13,29.89,29.77,28,5,37,0.00
2013-10-19,72,59,49,32,28,25,47,33,18,30.06,29.89,31,9,36,0.00
2013-10-20,75,65,55,34,23,11,35,22,11,29.91,29.69,11,2,17,0.00
2013-10-21,68,60,53,35,26,12,42,28,14,30.00,29.76,24,10,29,0.00
2013-10-22,70,62,54,39,34,29,53,36,22,30.11,29.97,24,10,29,0.00
2013-10-23,75,67,59,36,32,27,36,27,19,30.00,29.86,21,10,26,0.00
2013-10-24,79,70,64,41,37,33,33,29,26,29.95,29.80,21,11,30,0.00
2013-10-25,77,68,62,43,39,33,45,34,25,29.94,29.82,30,13,35,0.00
2013-10-26,74,64,52,46,39,30,71,43,20,30.02,29.88,17,6,28,0.00
2013-10-27,74,65,57,42,39,36,46,38,31,30.00,29.73,21,10,27,0.00
2013-10-28,76,68,60,42,32,18,47,28,12,29.81,29.69,15,3,19,0.00
2013-10-29,71,67,64,36,27,14,34,23,11,29.85,29.72,7,2,15,0.00
2013-10-30,68,62,52,53,42,31,87,49,37,29.82,29.67,15,5,28,0.01
2013-10-31,66,55,45,30,20,7,44,27,10,30.00,29.83,12,4,16,0.00
2013-11-1,65,57,47,27,20,11,36,25,13,30.09,29.95,12,3,22,0.00
2013-11-2,70,62,54,23,20,14,28,20,15,30.16,29.88,22,10,31,0.00
2013-11-3,72,64,53,44,30,16,55,29,17,29.87,29.64,22,6,30,0.00
2013-11-4,70,62,52,50,46,40,80,56,36,29.77,29.64,17,4,20,0.00
2013-11-5,64,59,55,45,39,26,60,48,32,30.00,29.68,9,3,22,0.00
2013-11-6,63,54,44,28,17,-4,47,25,9,30.26,30.00,13,4,16,0.00
2013-11-7,65,55,42,23,15,5,29,21,12,30.35,30.13,30,9,36,0.00
2013-11-8,69,59,50,42,35,23,53,41,30,30.13,29.90,22,5,29,0.00
2013-11-9,73,62,52,47,38,28,77,45,22,30.03,29.95,4,1,9,0.00
2013-11-10,74,65,51,38,32,28,46,29,19,30.11,29.98,14,4,20,0.00
2013-11-11,74,67,55,42,37,31,47,34,25,30.05,29.93,20,8,23,0.00
2013-11-12,66,54,44,43,38,36,75,58,37,30.37,30.03,40,22,47,0.00
2013-11-13,57,49,42,41,38,35,90,67,54,30.39,30.09,36,17,48,0.00
2013-11-14,66,56,47,45,42,40,82,60,42,30.08,29.84,16,2,18,0.00
2013-11-15,69,60,55,49,44,41,76,56,42,29.84,29.61,17,4,26,0.05
2013-11-16,72,62,55,47,45,39,72,55,33,29.73,29.59,18,7,28,0.00
2013-11-17,67,58,51,43,40,35,70,52,36,29.98,29.73,14,4,20,0.00
2013-11-18,69,61,53,40,37,33,51,41,31,30.06,29.92,15,4,17,0.00
2013-11-19,70,62,51,44,40,37,62,45,34,29.92,29.73,12,2,15,0.00
2013-11-20,68,61,54,43,39,33,57,45,35,29.79,29.67,10,1,14,0.00
2013-11-21,71,63,54,42,38,34,57,41,31,29.89,29.77,18,4,22,0.00
2013-11-22,63,40,32,37,29,24,73,65,35,30.27,29.83,50,32,59,0.00
2013-11-23,36,33,29,28,26,24,87,76,67,30.45,30.27,43,25,57,0.00
2013-11-24,31,29,27,28,25,23,89,86,84,30.39,30.29,24,9,29,0.00
2013-11-25,43,35,30,33,30,27,90,82,63,30.36,30.24,11,2,12,0.03
2013-11-26,50,42,34,31,26,23,83,56,37,30.48,30.36,13,3,20,0.00
2013-11-27,46,42,38,24,22,20,56,46,36,30.42,30.19,20,8,23,0.00
2013-11-28,57,48,36,28,25,22,63,43,32,30.27,30.15,17,5,23,0.00
2013-11-29,63,53,40,35,32,26,63,46,34,30.28,30.13,22,3,26,0.00
2013-11-30,65,55,44,38,36,33,69,50,36,30.19,30.06,6,1,9,0.00
2013-12-1,58,55,51,42,37,32,64,53,38,30.13,30.03,5,1,6,0.00
2013-12-2,64,53,38,37,28,14,77,42,17,30.03,29.82,7,2,10,0.00
2013-12-3,69,58,48,38,24,16,52,28,16,29.82,29.62,13,3,20,0.00
2013-12-4,66,58,52,44,38,32,67,49,30,29.75,29.60,24,7,35,0.00
2013-12-5,55,48,40,47,40,34,94,75,51,29.90,29.69,19,5,22,0.19
2013-12-6,49,42,34,33,28,24,77,60,39,30.13,29.90,24,7,34,0.00
2013-12-7,46,36,30,34,30,26,92,80,50,30.12,29.96,37,17,47,0.00
2013-12-8,54,45,38,28,23,17,60,44,31,30.06,29.92,11,4,18,0.00
2013-12-9,52,44,36,31,22,5,68,46,20,30.32,29.97,15,5,22,0.00
2013-12-10,48,36,23,8,5,1,51,28,15,30.42,30.25,11,1,15,0.00
2013-12-11,52,42,31,21,13,4,42,31,21,30.43,30.29,28,8,32,0.00
2013-12-12,46,42,37,35,28,17,85,61,35,30.43,30.13,25,8,31,0.02
2013-12-13,54,45,37,39,34,31,91,69,42,30.12,29.99,13,3,22,0.02
2013-12-14,51,45,38,33,26,20,73,48,30,30.35,30.05,21,5,21,0.00
2013-12-15,53,44,35,25,22,20,61,43,30,30.38,30.25,8,2,10,0.00
2013-12-16,58,48,35,25,22,20,57,38,26,30.35,30.21,8,3,12,0.00
2013-12-17,63,53,39,28,24,22,54,33,23,30.32,30.16,8,1,11,0.00
2013-12-18,59,52,44,28,24,20,46,34,25,30.16,29.87,4,1,5,0.00
2013-12-19,68,58,50,24,19,3,34,23,8,29.85,29.62,11,2,23,0.00
2013-12-20,56,51,38,43,33,19,81,55,25,29.66,29.48,9,4,19,0.02
2013-12-21,44,39,33,32,31,29,91,74,58,29.96,29.61,19,7,25,0.01
2013-12-22,50,42,36,30,25,21,74,54,31,30.29,29.96,12,3,14,0.00
2013-12-23,54,43,34,27,22,17,68,45,28,30.46,30.29,12,2,15,0.00
2013-12-24,55,46,36,26,23,17,56,41,31,30.39,30.13,17,3,17,0.00
2013-12-25,51,45,39,28,25,22,61,47,38,30.35,30.16,28,6,34,0.00
2013-12-26,51,43,37,27,24,20,62,49,37,30.38,30.22,18,4,20,0.00
2013-12-27,52,44,36,26,23,21,57,43,34,30.36,30.22,11,3,19,0.00
2013-12-28,54,46,36,29,26,23,61,46,38,30.22,29.93,7,2,14,0.00
2013-12-29,48,44,35,25,22,19,57,43,33,30.19,29.92,27,10,31,0.00
2013-12-30,53,42,31,25,21,13,64,45,24,30.34,30.18,18,3,22,0.00
2013-12-31,56,47,36,23,20,16,47,34,26,30.33,30.10,22,5,30,0.00
2014-1-1,59,51,40,25,21,15,51,33,19,30.16,30.02,14,3,21,0.00
2014-1-2,56,47,38,27,24,14,63,41,20,30.32,30.16,33,16,39,0.00